カタログに戻る

COSMOS 886 DEB

運用中UNKNOWN
NORAD 14799·DEBRIS·🇷🇺 Russia

打ち上げ Dec 27, 1976 から Baikonur Cosmodrome

Loading…

次のパス (今後24時間)

TLE

最新Source: Space-Track

元期: Sep 14, 2026, 00:29 UTC

1 14799U 76126BR  26257.02035926  .00000037  00000-0  54347-3 0  9997
2 14799  65.8082 107.6315 0880647  13.7732 134.8443 11.69570083830480

AllMySatでCOSMOS 886 DEBをリアルタイム追跡

Download on the App Store